| time (UTC) | temp F | wind direction | speed MPH | gust MPH | rain 1hr in | rain 24hr in | rain mn in | humidity % | barometer mb |
| 20260901205506 | 97 | 214 | 4.0 | 15.0 | 0.00 | 0.00 | 0.00 | 20 | 1010.6 |
| 20260901205006 | 97 | 218 | 6.0 | 15.0 | 0.00 | 0.00 | 0.00 | 21 | 1010.7 |
| 20260901204508 | 96 | 229 | 5.0 | 17.0 | 0.00 | 0.00 | 0.00 | 21 | 1010.8 |
| 20260901204004 | 96 | 202 | 8.0 | 11.0 | 0.00 | 0.00 | 0.00 | 21 | 1010.9 |
| 20260901203503 | 96 | 139 | 5.0 | 14.0 | 0.00 | 0.00 | 0.00 | 21 | 1010.9 |
| 20260901202501 | 96 | 206 | 2.0 | 8.0 | 0.00 | 0.00 | 0.00 | 21 | 1011.0 |
| 20260901202000 | 95 | 194 | 0.0 | 15.0 | 0.00 | 0.00 | 0.00 | 21 | 1011.1 |
| 20260901201501 | 95 | 180 | 8.0 | 15.0 | 0.00 | 0.00 | 0.00 | 21 | 1011.4 |
| 20260901201100 | 96 | 191 | 11.0 | 15.0 | 0.00 | 0.00 | 0.00 | 20 | 1011.2 |
| 20260901200559 | 96 | 197 | 10.0 | 16.0 | 0.00 | 0.00 | 0.00 | 20 | 1011.3 |
| 20260901200058 | 96 | 158 | 6.0 | 18.0 | 0.00 | 0.00 | 0.00 | 22 | 1011.4 |
| 20260901195558 | 96 | 200 | 11.0 | 16.0 | 0.00 | 0.00 | 0.00 | 21 | 1011.6 |
| 20260901195058 | 96 | 154 | 8.0 | 15.0 | 0.00 | 0.00 | 0.00 | 22 | 1011.7 |
| 20260901194601 | 96 | 221 | 5.0 | 12.0 | 0.00 | 0.00 | 0.00 | 23 | 1011.8 |
| 20260901194057 | 96 | 158 | 6.0 | 14.0 | 0.00 | 0.00 | 0.00 | 22 | 1011.9 |
| 20260901193554 | 96 | 188 | 7.0 | 17.0 | 0.00 | 0.00 | 0.00 | 22 | 1011.9 |
| 20260901193054 | 96 | 180 | 9.0 | 16.0 | 0.00 | 0.00 | 0.00 | 22 | 1012.0 |
| 20260901192555 | 96 | 208 | 9.0 | 23.0 | 0.00 | 0.00 | 0.00 | 24 | 1012.0 |
| 20260901192051 | 95 | 159 | 10.0 | 23.0 | 0.00 | 0.00 | 0.00 | 24 | 1012.1 |
| 20260901191551 | 95 | 196 | 9.0 | 17.0 | 0.00 | 0.00 | 0.00 | 25 | 1012.2 |
| 20260901191051 | 95 | 196 | 9.0 | 17.0 | 0.00 | 0.00 | 0.00 | 24 | 1012.2 |
| 20260901190549 | 95 | 196 | 10.0 | 16.0 | 0.00 | 0.00 | 0.00 | 26 | 1012.3 |
| 20260901185548 | 94 | 202 | 10.0 | 16.0 | 0.00 | 0.00 | 0.00 | 25 | 1012.5 |
| 20260901185046 | 94 | 208 | 10.0 | 16.0 | 0.00 | 0.00 | 0.00 | 26 | 1012.5 |
| 20260901184546 | 93 | 227 | 11.0 | 18.0 | 0.00 | 0.00 | 0.00 | 27 | 1012.4 |
| 20260901184047 | 94 | 212 | 10.0 | 18.0 | 0.00 | 0.00 | 0.00 | 26 | 1012.6 |
| 20260901183543 | 93 | 208 | 10.0 | 17.0 | 0.00 | 0.00 | 0.00 | 27 | 1012.5 |
| 20260901183105 | 93 | 214 | 10.0 | 17.0 | 0.00 | 0.00 | 0.00 | 28 | 1012.7 |
| 20260901182542 | 93 | 202 | 8.0 | 16.0 | 0.00 | 0.00 | 0.00 | 28 | 1012.7 |
| 20260901182041 | 93 | 197 | 10.0 | 17.0 | 0.00 | 0.00 | 0.00 | 28 | 1012.7 |
| 20260901181540 | 92 | 208 | 11.0 | 17.0 | 0.00 | 0.00 | 0.00 | 29 | 1012.9 |
| 20260901181037 | 92 | 201 | 11.0 | 18.0 | 0.00 | 0.00 | 0.00 | 30 | 1013.0 |
| 20260901180536 | 92 | 218 | 11.0 | 18.0 | 0.00 | 0.00 | 0.00 | 29 | 1012.9 |
| 20260901175535 | 92 | 177 | 11.0 | 17.0 | 0.00 | 0.00 | 0.00 | 31 | 1013.0 |
| 20260901175034 | 92 | 193 | 10.0 | 16.0 | 0.00 | 0.00 | 0.00 | 30 | 1013.1 |
| 20260901174534 | 92 | 209 | 9.0 | 14.0 | 0.00 | 0.00 | 0.00 | 31 | 1013.1 |
| 20260901174033 | 91 | 198 | 9.0 | 14.0 | 0.00 | 0.00 | 0.00 | 32 | 1013.1 |
| 20260901173531 | 91 | 202 | 7.0 | 17.0 | 0.00 | 0.00 | 0.00 | 33 | 1013.3 |
| 20260901173030 | 91 | 152 | 9.0 | 17.0 | 0.00 | 0.00 | 0.00 | 34 | 1013.2 |
| 20260901172528 | 90 | 196 | 7.0 | 15.0 | 0.00 | 0.00 | 0.00 | 34 | 1013.4 |
| 20260901172027 | 90 | 201 | 9.0 | 15.0 | 0.00 | 0.00 | 0.00 | 34 | 1013.4 |
| 20260901171533 | 90 | 202 | 10.0 | 15.0 | 0.00 | 0.00 | 0.00 | 34 | 1013.5 |
| 20260901171029 | 90 | 181 | 7.0 | 12.0 | 0.00 | 0.00 | 0.00 | 36 | 1013.5 |
| 20260901170523 | 89 | 191 | 5.0 | 12.0 | 0.00 | 0.00 | 0.00 | 36 | 1013.5 |
| 20260901165522 | 88 | 210 | 8.0 | 12.0 | 0.00 | 0.00 | 0.00 | 37 | 1013.6 |
| 20260901165021 | 88 | 208 | 7.0 | 12.0 | 0.00 | 0.00 | 0.00 | 38 | 1013.7 |
| 20260901164521 | 88 | 187 | 7.0 | 14.0 | 0.00 | 0.00 | 0.00 | 38 | 1013.7 |
| 20260901164019 | 87 | 122 | 5.0 | 14.0 | 0.00 | 0.00 | 0.00 | 39 | 1013.7 |
| 20260901163519 | 87 | 201 | 6.0 | 12.0 | 0.00 | 0.00 | 0.00 | 38 | 1013.8 |
| 20260901163022 | 87 | 191 | 6.0 | 14.0 | 0.00 | 0.00 | 0.00 | 40 | 1013.7 |
| 20260901162518 | 87 | 193 | 7.0 | 14.0 | 0.00 | 0.00 | 0.00 | 40 | 1013.7 |
| 20260901162020 | 87 | 199 | 7.0 | 12.0 | 0.00 | 0.00 | 0.00 | 40 | 1014.0 |
| 20260901161516 | 86 | 206 | 6.0 | 12.0 | 0.00 | 0.00 | 0.00 | 41 | 1013.8 |
| 20260901161016 | 86 | 169 | 5.0 | 11.0 | 0.00 | 0.00 | 0.00 | 42 | 1013.7 |
| 20260901160517 | 85 | 171 | 5.0 | 10.0 | 0.00 | 0.00 | 0.00 | 42 | 1013.7 |
| 20260901155526 | 85 | 155 | 5.0 | 12.0 | 0.00 | 0.00 | 0.00 | 44 | 1013.6 |
| 20260901155025 | 84 | 213 | 7.0 | 11.0 | 0.00 | 0.00 | 0.00 | 44 | 1013.7 |
| 20260901154524 | 84 | 209 | 8.0 | 11.0 | 0.00 | 0.00 | 0.00 | 44 | 1013.7 |
| 20260901154025 | 84 | 191 | 6.0 | 11.0 | 0.00 | 0.00 | 0.00 | 45 | 1013.8 |
| 20260901153523 | 84 | 137 | 6.0 | 11.0 | 0.00 | 0.00 | 0.00 | 45 | 1013.8 |
| 20260901153027 | 83 | 204 | 5.0 | 14.0 | 0.00 | 0.00 | 0.00 | 46 | 1013.7 |
| 20260901152525 | 83 | 203 | 8.0 | 14.0 | 0.00 | 0.00 | 0.00 | 46 | 1013.6 |
| 20260901152022 | 83 | 183 | 5.0 | 14.0 | 0.00 | 0.00 | 0.00 | 47 | 1013.7 |
| 20260901151522 | 82 | 178 | 6.0 | 14.0 | 0.00 | 0.00 | 0.00 | 47 | 1013.9 |
| 20260901151022 | 82 | 195 | 7.0 | 14.0 | 0.00 | 0.00 | 0.00 | 47 | 1013.9 |
| 20260901150523 | 82 | 213 | 8.0 | 14.0 | 0.00 | 0.00 | 0.00 | 47 | 1014.0 |
| 20260901145511 | 82 | 158 | 8.0 | 14.0 | 0.00 | 0.00 | 0.00 | 48 | 1013.9 |
| 20260901145010 | 81 | 185 | 6.0 | 14.0 | 0.00 | 0.00 | 0.00 | 49 | 1014.0 |
| 20260901144510 | 81 | 195 | 7.0 | 13.0 | 0.00 | 0.00 | 0.00 | 49 | 1013.9 |
| 20260901144012 | 81 | 210 | 8.0 | 14.0 | 0.00 | 0.00 | 0.00 | 49 | 1014.0 |
| 20260901143514 | 81 | 199 | 6.0 | 14.0 | 0.00 | 0.00 | 0.00 | 49 | 1014.0 |
| 20260901143012 | 80 | 196 | 6.0 | 16.0 | 0.00 | 0.00 | 0.00 | 50 | 1014.0 |
| 20260901142509 | 80 | 191 | 9.0 | 15.0 | 0.00 | 0.00 | 0.00 | 50 | 1014.0 |
| 20260901142009 | 80 | 198 | 9.0 | 13.0 | 0.00 | 0.00 | 0.00 | 50 | 1013.9 |
| 20260901141509 | 80 | 196 | 7.0 | 14.0 | 0.00 | 0.00 | 0.00 | 51 | 1013.9 |
| 20260901141013 | 80 | 172 | 8.0 | 16.0 | 0.00 | 0.00 | 0.00 | 51 | 1014.0 |
| 20260901140509 | 79 | 156 | 5.0 | 13.0 | 0.00 | 0.00 | 0.00 | 52 | 1014.0 |
| 20260901135511 | 79 | 199 | 6.0 | 13.0 | 0.00 | 0.00 | 0.00 | 52 | 1014.0 |
| 20260901135006 | 79 | 186 | 7.0 | 13.0 | 0.00 | 0.00 | 0.00 | 52 | 1014.0 |
| 20260901134510 | 79 | 187 | 7.0 | 14.0 | 0.00 | 0.00 | 0.00 | 53 | 1014.2 |
| 20260901134005 | 79 | 193 | 8.0 | 14.0 | 0.00 | 0.00 | 0.00 | 53 | 1014.1 |
| 20260901133505 | 78 | 175 | 5.0 | 11.0 | 0.00 | 0.00 | 0.00 | 53 | 1014.1 |
| 20260901133006 | 78 | 131 | 5.0 | 9.0 | 0.00 | 0.00 | 0.00 | 53 | 1014.1 |
| 20260901132504 | 78 | 158 | 4.0 | 9.0 | 0.00 | 0.00 | 0.00 | 54 | 1013.9 |
| 20260901132003 | 78 | 180 | 4.0 | 9.0 | 0.00 | 0.00 | 0.00 | 54 | 1013.9 |
| 20260901131504 | 77 | 170 | 5.0 | 9.0 | 0.00 | 0.00 | 0.00 | 54 | 1014.0 |
| 20260901131004 | 77 | 164 | 4.0 | 7.0 | 0.00 | 0.00 | 0.00 | 54 | 1013.9 |
| 20260901130504 | 77 | 191 | 3.0 | 8.0 | 0.00 | 0.00 | 0.00 | 54 | 1013.9 |
| 20260901125501 | 77 | 179 | 3.0 | 5.0 | 0.00 | 0.00 | 0.00 | 54 | 1013.8 |
| 20260901125101 | 77 | 181 | 3.0 | 6.0 | 0.00 | 0.00 | 0.00 | 54 | 1013.9 |
| 20260901124601 | 77 | 187 | 3.0 | 9.0 | 0.00 | 0.00 | 0.00 | 54 | 1013.7 |
| 20260901124100 | 77 | 158 | 4.0 | 9.0 | 0.00 | 0.00 | 0.00 | 54 | 1013.8 |
| 20260901123600 | 77 | 184 | 4.0 | 10.0 | 0.00 | 0.00 | 0.00 | 54 | 1013.8 |
| 20260901123058 | 78 | 168 | 5.0 | 10.0 | 0.00 | 0.00 | 0.00 | 53 | 1013.7 |
| 20260901122558 | 78 | 202 | 5.0 | 10.0 | 0.00 | 0.00 | 0.00 | 53 | 1013.4 |
| 20260901122057 | 78 | 165 | 6.0 | 10.0 | 0.00 | 0.00 | 0.00 | 53 | 1013.4 |
| 20260901121603 | 78 | 172 | 4.0 | 8.0 | 0.00 | 0.00 | 0.00 | 53 | 1013.3 |
| 20260901121054 | 78 | 188 | 5.0 | 8.0 | 0.00 | 0.00 | 0.00 | 53 | 1013.2 |
| 20260901120554 | 78 | 162 | 5.0 | 10.0 | 0.00 | 0.00 | 0.00 | 53 | 1013.2 |
| 20260901120153 | 78 | 171 | 6.0 | 13.0 | 0.00 | 0.00 | 0.00 | 52 | 1013.3 |
| 20260901115552 | 78 | 177 | 5.0 | 12.0 | 0.00 | 0.00 | 0.00 | 52 | 1013.4 |
| 20260901115056 | 78 | 175 | 4.0 | 12.0 | 0.00 | 0.00 | 0.00 | 52 | 1013.3 |
| 20260901114551 | 79 | 185 | 5.0 | 10.0 | 0.00 | 0.00 | 0.00 | 52 | 1013.3 |
| 20260901114052 | 79 | 187 | 5.0 | 10.0 | 0.00 | 0.00 | 0.00 | 52 | 1013.2 |
| 20260901113548 | 79 | 164 | 4.0 | 10.0 | 0.00 | 0.00 | 0.00 | 51 | 1013.2 |
| 20260901113047 | 79 | 185 | 5.0 | 11.0 | 0.00 | 0.00 | 0.00 | 51 | 1013.2 |
| 20260901112546 | 79 | 181 | 5.0 | 10.0 | 0.00 | 0.00 | 0.00 | 51 | 1013.3 |
| 20260901112044 | 79 | 185 | 5.0 | 11.0 | 0.00 | 0.00 | 0.00 | 51 | 1013.3 |
| 20260901111549 | 79 | 197 | 4.0 | 11.0 | 0.00 | 0.00 | 0.00 | 51 | 1013.3 |
| 20260901111043 | 79 | 169 | 5.0 | 12.0 | 0.00 | 0.00 | 0.00 | 50 | 1013.3 |
| 20260901110542 | 79 | 168 | 6.0 | 12.0 | 0.00 | 0.00 | 0.00 | 50 | 1013.3 |
| 20260901110142 | 80 | 183 | 6.0 | 11.0 | 0.00 | 0.00 | 0.00 | 50 | 1013.2 |
| 20260901105043 | 80 | 187 | 5.0 | 12.0 | 0.00 | 0.00 | 0.00 | 49 | 1013.1 |
| 20260901104543 | 80 | 171 | 7.0 | 12.0 | 0.00 | 0.00 | 0.00 | 49 | 1013.1 |
| 20260901104046 | 80 | 185 | 5.0 | 12.0 | 0.00 | 0.00 | 0.00 | 49 | 1013.1 |
| 20260901103541 | 80 | 173 | 6.0 | 12.0 | 0.00 | 0.00 | 0.00 | 49 | 1013.1 |
| 20260901103044 | 80 | 190 | 5.0 | 10.0 | 0.00 | 0.00 | 0.00 | 49 | 1013.0 |
| 20260901102541 | 80 | 193 | 6.0 | 10.0 | 0.00 | 0.00 | 0.00 | 49 | 1013.0 |
| 20260901102040 | 80 | 161 | 6.0 | 10.0 | 0.00 | 0.00 | 0.00 | 48 | 1013.0 |
| 20260901101540 | 80 | 189 | 4.0 | 10.0 | 0.00 | 0.00 | 0.00 | 48 | 1013.0 |
| 20260901101041 | 81 | 189 | 5.0 | 11.0 | 0.00 | 0.00 | 0.00 | 48 | 1012.8 |
| 20260901100541 | 81 | 173 | 5.0 | 16.0 | 0.00 | 0.00 | 0.00 | 46 | 1012.8 |
| 20260901100139 | 81 | 173 | 5.0 | 16.0 | 0.00 | 0.00 | 0.00 | 46 | 1012.7 |
| 20260901095535 | 81 | 182 | 4.0 | 16.0 | 0.00 | 0.00 | 0.00 | 46 | 1012.6 |
| 20260901095035 | 81 | 166 | 6.0 | 16.0 | 0.00 | 0.00 | 0.00 | 46 | 1012.6 |
| 20260901094535 | 81 | 169 | 6.0 | 14.0 | 0.00 | 0.00 | 0.00 | 46 | 1012.6 |
| 20260901094135 | 81 | 178 | 6.0 | 15.0 | 0.00 | 0.00 | 0.00 | 45 | 1012.6 |
| 20260901093533 | 81 | 156 | 6.0 | 15.0 | 0.00 | 0.00 | 0.00 | 45 | 1012.6 |
| 20260901093033 | 81 | 185 | 4.0 | 10.0 | 0.00 | 0.00 | 0.00 | 44 | 1012.6 |
| 20260901092533 | 82 | 194 | 5.0 | 10.0 | 0.00 | 0.00 | 0.00 | 44 | 1012.7 |
| 20260901092032 | 82 | 197 | 5.0 | 11.0 | 0.00 | 0.00 | 0.00 | 43 | 1012.6 |
| 20260901091533 | 82 | 202 | 8.0 | 11.0 | 0.00 | 0.00 | 0.00 | 43 | 1012.7 |
| 20260901091031 | 82 | 146 | 6.0 | 11.0 | 0.00 | 0.00 | 0.00 | 42 | 1012.7 |
| 20260901090530 | 82 | 200 | 4.0 | 10.0 | 0.00 | 0.00 | 0.00 | 41 | 1012.7 |
| 20260901090130 | 82 | 171 | 4.0 | 10.0 | 0.00 | 0.00 | 0.00 | 40 | 1012.7 |
| 20260901085529 | 82 | 184 | 4.0 | 11.0 | 0.00 | 0.00 | 0.00 | 40 | 1012.7 |
| 20260901085029 | 82 | 168 | 6.0 | 13.0 | 0.00 | 0.00 | 0.00 | 41 | 1012.7 |
| 20260901084528 | 82 | 152 | 6.0 | 15.0 | 0.00 | 0.00 | 0.00 | 40 | 1012.7 |
| 20260901084028 | 82 | 180 | 8.0 | 15.0 | 0.00 | 0.00 | 0.00 | 40 | 1012.7 |
| 20260901083531 | 83 | 200 | 5.0 | 12.0 | 0.00 | 0.00 | 0.00 | 40 | 1012.6 |
| 20260901083026 | 83 | 190 | 5.0 | 12.0 | 0.00 | 0.00 | 0.00 | 39 | 1012.7 |
| 20260901082526 | 83 | 181 | 6.0 | 12.0 | 0.00 | 0.00 | 0.00 | 39 | 1012.7 |
| 20260901082027 | 83 | 187 | 5.0 | 12.0 | 0.00 | 0.00 | 0.00 | 38 | 1012.7 |
| 20260901081525 | 83 | 175 | 7.0 | 15.0 | 0.00 | 0.00 | 0.00 | 38 | 1012.6 |
| 20260901081025 | 83 | 162 | 8.0 | 15.0 | 0.00 | 0.00 | 0.00 | 38 | 1012.6 |
| 20260901080525 | 83 | 192 | 5.0 | 11.0 | 0.00 | 0.00 | 0.00 | 38 | 1012.6 |
| 20260901080126 | 83 | 189 | 4.0 | 10.0 | 0.00 | 0.00 | 0.00 | 38 | 1012.6 |
| 20260901075527 | 83 | 181 | 5.0 | 10.0 | 0.00 | 0.00 | 0.00 | 38 | 1012.7 |
| 20260901075028 | 83 | 193 | 5.0 | 12.0 | 0.00 | 0.00 | 0.00 | 37 | 1012.6 |
| 20260901074524 | 83 | 196 | 5.0 | 9.0 | 0.00 | 0.00 | 0.00 | 37 | 1012.5 |
| 20260901074028 | 83 | 190 | 4.0 | 9.0 | 0.00 | 0.00 | 0.00 | 38 | 1012.5 |
| 20260901073524 | 83 | 187 | 4.0 | 9.0 | 0.00 | 0.00 | 0.00 | 38 | 1012.5 |
| 20260901073035 | 83 | 150 | 4.0 | 8.0 | 0.00 | 0.00 | 0.00 | 38 | 1012.5 |
| 20260901072524 | 84 | 198 | 4.0 | 8.0 | 0.00 | 0.00 | 0.00 | 38 | 1012.6 |
| 20260901072024 | 84 | 193 | 4.0 | 7.0 | 0.00 | 0.00 | 0.00 | 38 | 1012.6 |
| 20260901071524 | 84 | 181 | 4.0 | 7.0 | 0.00 | 0.00 | 0.00 | 38 | 1012.6 |
| 20260901071022 | 84 | 179 | 4.0 | 8.0 | 0.00 | 0.00 | 0.00 | 37 | 1012.5 |
| 20260901070521 | 84 | 181 | 4.0 | 9.0 | 0.00 | 0.00 | 0.00 | 37 | 1012.6 |
| 20260901070121 | 84 | 200 | 3.0 | 9.0 | 0.00 | 0.00 | 0.00 | 37 | 1012.5 |
| 20260901065523 | 84 | 164 | 4.0 | 9.0 | 0.00 | 0.00 | 0.00 | 37 | 1012.5 |
| 20260901065021 | 84 | 177 | 4.0 | 9.0 | 0.00 | 0.00 | 0.00 | 37 | 1012.5 |
| 20260901064520 | 85 | 184 | 4.0 | 8.0 | 0.00 | 0.00 | 0.00 | 37 | 1012.6 |
| 20260901064019 | 85 | 180 | 3.0 | 9.0 | 0.00 | 0.00 | 0.00 | 37 | 1012.6 |
| 20260901063518 | 85 | 184 | 5.0 | 9.0 | 0.00 | 0.00 | 0.00 | 37 | 1012.6 |
| 20260901063023 | 85 | 160 | 4.0 | 10.0 | 0.00 | 0.00 | 0.00 | 37 | 1012.6 |
| 20260901062517 | 85 | 199 | 5.0 | 10.0 | 0.00 | 0.00 | 0.00 | 36 | 1012.6 |
| 20260901062017 | 85 | 201 | 6.0 | 11.0 | 0.00 | 0.00 | 0.00 | 36 | 1012.6 |
| 20260901061517 | 85 | 175 | 5.0 | 11.0 | 0.00 | 0.00 | 0.00 | 36 | 1012.5 |
| 20260901061017 | 85 | 195 | 5.0 | 11.0 | 0.00 | 0.00 | 0.00 | 36 | 1012.5 |
| 20260901060517 | 85 | 169 | 3.0 | 12.0 | 0.00 | 0.00 | 0.00 | 36 | 1012.6 |
| 20260901060115 | 85 | 183 | 7.0 | 13.0 | 0.00 | 0.00 | 0.00 | 36 | 1012.4 |
| 20260901055516 | 85 | 157 | 5.0 | 13.0 | 0.00 | 0.00 | 0.00 | 36 | 1012.4 |
| 20260901055020 | 85 | 179 | 5.0 | 11.0 | 0.00 | 0.00 | 0.00 | 37 | 1012.3 |
| 20260901054517 | 85 | 200 | 4.0 | 11.0 | 0.00 | 0.00 | 0.00 | 37 | 1012.4 |
| 20260901054016 | 85 | 164 | 5.0 | 11.0 | 0.00 | 0.00 | 0.00 | 37 | 1012.3 |
| 20260901053516 | 85 | 174 | 3.0 | 9.0 | 0.00 | 0.00 | 0.00 | 37 | 1012.3 |
| 20260901053016 | 85 | 191 | 4.0 | 9.0 | 0.00 | 0.00 | 0.00 | 37 | 1012.3 |
| 20260901052514 | 85 | 177 | 5.0 | 9.0 | 0.00 | 0.00 | 0.00 | 37 | 1012.2 |
| 20260901052015 | 85 | 176 | 4.0 | 8.0 | 0.00 | 0.00 | 0.00 | 37 | 1012.1 |
| 20260901051513 | 85 | 193 | 4.0 | 9.0 | 0.00 | 0.00 | 0.00 | 36 | 1012.1 |
| 20260901051013 | 86 | 154 | 4.0 | 9.0 | 0.00 | 0.00 | 0.00 | 36 | 1012.1 |
| 20260901050512 | 86 | 174 | 3.0 | 8.0 | 0.00 | 0.00 | 0.00 | 36 | 1012.2 |
| 20260901050111 | 86 | 189 | 3.0 | 6.0 | 0.00 | 0.00 | 0.00 | 36 | 1012.2 |
| 20260901045511 | 86 | 192 | 3.0 | 6.0 | 0.00 | 0.00 | 0.00 | 36 | 1012.2 |
| 20260901045010 | 86 | 181 | 3.0 | 6.0 | 0.00 | 0.00 | 0.00 | 36 | 1012.1 |
| 20260901044511 | 86 | 172 | 2.0 | 6.0 | 0.00 | 0.00 | 0.00 | 36 | 1012.1 |
| 20260901044010 | 86 | 177 | 3.0 | 5.0 | 0.00 | 0.00 | 0.00 | 35 | 1012.2 |
| 20260901043510 | 87 | 186 | 3.0 | 5.0 | 0.00 | 0.00 | 0.00 | 35 | 1012.2 |
| 20260901043010 | 87 | 186 | 3.0 | 6.0 | 0.00 | 0.00 | 0.00 | 35 | 1012.2 |
| 20260901042511 | 87 | 189 | 4.0 | 6.0 | 0.00 | 0.00 | 0.00 | 34 | 1012.1 |
| 20260901042009 | 87 | 180 | 3.0 | 8.0 | 0.00 | 0.00 | 0.00 | 34 | 1012.1 |
| 20260901041509 | 87 | 183 | 4.0 | 8.0 | 0.00 | 0.00 | 0.00 | 34 | 1012.1 |
| 20260901041009 | 88 | 189 | 4.0 | 8.0 | 0.00 | 0.00 | 0.00 | 34 | 1012.0 |
| 20260901040509 | 88 | 191 | 4.0 | 9.0 | 0.00 | 0.00 | 0.00 | 34 | 1012.0 |
| 20260901040139 | 88 | 195 | 5.0 | 9.0 | 0.00 | 0.00 | 0.00 | 33 | 1011.9 |
| 20260901035509 | 88 | 190 | 6.0 | 10.0 | 0.00 | 0.00 | 0.00 | 33 | 1011.8 |
| 20260901035007 | 88 | 183 | 3.0 | 9.0 | 0.00 | 0.00 | 0.00 | 33 | 1012.0 |
| 20260901034507 | 88 | 187 | 4.0 | 9.0 | 0.00 | 0.00 | 0.00 | 32 | 1011.8 |
| 20260901034008 | 89 | 194 | 4.0 | 11.0 | 0.00 | 0.00 | 0.00 | 32 | 1011.8 |
| 20260901033510 | 89 | 191 | 5.0 | 12.0 | 0.00 | 0.00 | 0.00 | 31 | 1011.8 |
| 20260901033007 | 89 | 187 | 6.0 | 12.0 | 0.00 | 0.00 | 0.00 | 31 | 1011.7 |
| 20260901032507 | 89 | 205 | 6.0 | 11.0 | 0.00 | 0.00 | 0.00 | 31 | 1011.7 |
| 20260901032007 | 89 | 190 | 6.0 | 12.0 | 0.00 | 0.00 | 0.00 | 31 | 1011.6 |
| 20260901031507 | 89 | 191 | 7.0 | 11.0 | 0.00 | 0.00 | 0.00 | 31 | 1011.4 |
| 20260901031008 | 90 | 189 | 5.0 | 13.0 | 0.00 | 0.00 | 0.00 | 30 | 1011.4 |
| 20260901030506 | 90 | 198 | 7.0 | 13.0 | 0.00 | 0.00 | 0.00 | 30 | 1011.3 |
| 20260901030112 | 90 | 191 | 7.0 | 11.0 | 0.00 | 0.00 | 0.00 | 30 | 1011.2 |
| 20260901025507 | 90 | 191 | 6.0 | 11.0 | 0.00 | 0.00 | 0.00 | 30 | 1011.1 |
| 20260901025007 | 90 | 162 | 7.0 | 11.0 | 0.00 | 0.00 | 0.00 | 29 | 1010.9 |
| 20260901024507 | 90 | 204 | 5.0 | 13.0 | 0.00 | 0.00 | 0.00 | 29 | 1010.8 |
| 20260901024007 | 90 | 202 | 6.0 | 12.0 | 0.00 | 0.00 | 0.00 | 28 | 1010.7 |
| 20260901023508 | 90 | 191 | 5.0 | 10.0 | 0.00 | 0.00 | 0.00 | 28 | 1010.4 |
| 20260901023006 | 90 | 196 | 5.0 | 10.0 | 0.00 | 0.00 | 0.00 | 28 | 1010.4 |
| 20260901022505 | 90 | 200 | 5.0 | 10.0 | 0.00 | 0.00 | 0.00 | 27 | 1010.2 |
| 20260901022006 | 90 | 192 | 5.0 | 10.0 | 0.00 | 0.00 | 0.00 | 26 | 1010.1 |
| 20260901021510 | 90 | 196 | 5.0 | 10.0 | 0.00 | 0.00 | 0.00 | 26 | 1009.9 |
| 20260901021005 | 90 | 191 | 5.0 | 9.0 | 0.00 | 0.00 | 0.00 | 25 | 1009.8 |
| 20260901020505 | 91 | 185 | 5.0 | 9.0 | 0.00 | 0.00 | 0.00 | 24 | 1009.8 |
| 20260901020006 | 91 | 196 | 6.0 | 12.0 | 0.00 | 0.00 | 0.00 | 24 | 1009.7 |
| 20260901015505 | 91 | 192 | 5.0 | 12.0 | 0.00 | 0.00 | 0.00 | 23 | 1009.6 |
| 20260901015007 | 91 | 193 | 6.0 | 10.0 | 0.00 | 0.00 | 0.00 | 23 | 1009.6 |
| 20260901014504 | 91 | 195 | 6.0 | 10.0 | 0.00 | 0.00 | 0.00 | 23 | 1009.5 |
| 20260901014005 | 92 | 160 | 4.0 | 9.0 | 0.00 | 0.00 | 0.00 | 23 | 1009.5 |
| 20260901013505 | 92 | 193 | 2.0 | 10.0 | 0.00 | 0.00 | 0.00 | 22 | 1009.4 |
| 20260901013005 | 92 | 196 | 4.0 | 10.0 | 0.00 | 0.00 | 0.00 | 22 | 1009.4 |
| 20260901012508 | 92 | 195 | 5.0 | 11.0 | 0.00 | 0.00 | 0.00 | 22 | 1009.4 |
| 20260901012009 | 93 | 196 | 6.0 | 11.0 | 0.00 | 0.00 | 0.00 | 22 | 1009.4 |
| 20260901011504 | 93 | 201 | 6.0 | 12.0 | 0.00 | 0.00 | 0.00 | 21 | 1009.3 |
| 20260901011004 | 93 | 195 | 6.0 | 12.0 | 0.00 | 0.00 | 0.00 | 22 | 1009.4 |
| 20260901010504 | 93 | 196 | 6.0 | 11.0 | 0.00 | 0.00 | 0.00 | 21 | 1009.4 |
| 20260901010116 | 94 | 196 | 8.0 | 12.0 | 0.00 | 0.00 | 0.00 | 21 | 1009.3 |
| 20260901005507 | 94 | 196 | 7.0 | 12.0 | 0.00 | 0.00 | 0.00 | 21 | 1009.3 |
| 20260901005006 | 94 | 203 | 6.0 | 12.0 | 0.00 | 0.00 | 0.00 | 21 | 1009.2 |
| 20260901004504 | 95 | 186 | 6.0 | 13.0 | 0.00 | 0.00 | 0.00 | 21 | 1009.2 |
| 20260901004003 | 95 | 195 | 8.0 | 15.0 | 0.00 | 0.00 | 0.00 | 20 | 1009.2 |
| 20260901003503 | 95 | 169 | 9.0 | 14.0 | 0.00 | 0.00 | 0.00 | 20 | 1009.3 |
| 20260901003008 | 95 | 183 | 7.0 | 12.0 | 0.00 | 0.00 | 0.00 | 20 | 1009.2 |
| 20260901002503 | 95 | 186 | 6.0 | 14.0 | 0.00 | 0.00 | 0.00 | 20 | 1009.3 |
| 20260901002005 | 96 | 244 | 6.0 | 16.0 | 0.00 | 0.00 | 0.00 | 20 | 1009.2 |
| 20260901001502 | 96 | 203 | 10.0 | 15.0 | 0.00 | 0.00 | 0.00 | 20 | 1009.2 |
| 20260901001002 | 96 | 198 | 7.0 | 15.0 | 0.00 | 0.00 | 0.00 | 19 | 1009.2 |
| 20260901000505 | 96 | 201 | 9.0 | 13.0 | 0.00 | 0.00 | 0.00 | 19 | 1009.2 |
| 20260901000104 | 96 | 191 | 8.0 | 14.0 | 0.00 | 0.00 | 0.00 | 19 | 1009.2 |
| 20260831235502 | 96 | 202 | 8.0 | 14.0 | 0.00 | 0.00 | 0.00 | 19 | 1009.2 |
| 20260831235002 | 96 | 142 | 4.0 | 12.0 | 0.00 | 0.00 | 0.00 | 18 | 1009.2 |
| 20260831234502 | 96 | 194 | 7.0 | 16.0 | 0.00 | 0.00 | 0.00 | 18 | 1009.0 |
| 20260831234002 | 96 | 207 | 7.0 | 16.0 | 0.00 | 0.00 | 0.00 | 18 | 1009.1 |
| 20260831233502 | 97 | 166 | 7.0 | 15.0 | 0.00 | 0.00 | 0.00 | 18 | 1009.0 |
| 20260831233002 | 97 | 200 | 6.0 | 13.0 | 0.00 | 0.00 | 0.00 | 18 | 1009.0 |
| 20260831232501 | 97 | 199 | 6.0 | 13.0 | 0.00 | 0.00 | 0.00 | 19 | 1009.0 |
| 20260831232001 | 97 | 195 | 8.0 | 17.0 | 0.00 | 0.00 | 0.00 | 19 | 1009.1 |
| 20260831231600 | 97 | 171 | 7.0 | 17.0 | 0.00 | 0.00 | 0.00 | 20 | 1009.0 |
| 20260831231101 | 97 | 212 | 7.0 | 15.0 | 0.00 | 0.00 | 0.00 | 21 | 1008.9 |
| 20260831230602 | 96 | 162 | 4.0 | 13.0 | 0.00 | 0.00 | 0.00 | 21 | 1009.0 |
| 20260831230112 | 97 | 212 | 11.0 | 18.0 | 0.00 | 0.00 | 0.00 | 21 | 1009.2 |
| 20260831225100 | 97 | 166 | 9.0 | 15.0 | 0.00 | 0.00 | 0.00 | 21 | 1009.1 |
| 20260831224558 | 97 | 189 | 6.0 | 13.0 | 0.00 | 0.00 | 0.00 | 21 | 1009.2 |
| 20260831224058 | 97 | 150 | 7.0 | 14.0 | 0.00 | 0.00 | 0.00 | 20 | 1009.2 |
| 20260831223557 | 97 | 145 | 5.0 | 14.0 | 0.00 | 0.00 | 0.00 | 21 | 1009.2 |
| 20260831223108 | 97 | 157 | 4.0 | 11.0 | 0.00 | 0.00 | 0.00 | 21 | 1009.2 |
| 20260831222557 | 97 | 204 | 6.0 | 12.0 | 0.00 | 0.00 | 0.00 | 22 | 1009.2 |
| 20260831222055 | 96 | 206 | 7.0 | 14.0 | 0.00 | 0.00 | 0.00 | 22 | 1009.2 |
| 20260831221558 | 96 | 158 | 8.0 | 14.0 | 0.00 | 0.00 | 0.00 | 21 | 1009.3 |
| 20260831221054 | 96 | 202 | 5.0 | 12.0 | 0.00 | 0.00 | 0.00 | 22 | 1009.3 |
| 20260831220554 | 96 | 191 | 6.0 | 11.0 | 0.00 | 0.00 | 0.00 | 22 | 1009.3 |
| 20260831220053 | 96 | 182 | 9.0 | 14.0 | 0.00 | 0.00 | 0.00 | 23 | 1009.3 |
| 20260831215054 | 96 | 87 | 4.0 | 11.0 | 0.00 | 0.00 | 0.00 | 23 | 1009.4 |
| 20260831214604 | 96 | 149 | 5.0 | 12.0 | 0.00 | 0.00 | 0.00 | 23 | 1009.6 |
| 20260831214053 | 96 | 181 | 7.0 | 12.0 | 0.00 | 0.00 | 0.00 | 22 | 1009.8 |
| 20260831213552 | 96 | 146 | 5.0 | 12.0 | 0.00 | 0.00 | 0.00 | 23 | 1009.8 |
| 20260831213051 | 96 | 202 | 9.0 | 15.0 | 0.00 | 0.00 | 0.00 | 23 | 1009.9 |
| 20260831212550 | 97 | 200 | 8.0 | 15.0 | 0.00 | 0.00 | 0.00 | 22 | 1010.0 |
| 20260831212049 | 96 | 209 | 7.0 | 15.0 | 0.00 | 0.00 | 0.00 | 23 | 1010.1 |
| 20260831211550 | 96 | 193 | 9.0 | 15.0 | 0.00 | 0.00 | 0.00 | 23 | 1010.0 |
| 20260831211049 | 95 | 244 | 6.0 | 12.0 | 0.00 | 0.00 | 0.00 | 24 | 1010.0 |
| 20260831210550 | 95 | 217 | 5.0 | 14.0 | 0.00 | 0.00 | 0.00 | 24 | 1010.1 |
| 20260831210047 | 95 | 192 | 4.0 | 15.0 | 0.00 | 0.00 | 0.00 | 24 | 1010.4 |